Torna al catalogo

COSMOS 628

AttivoMilitarePO
NORAD 7094·PAYLOAD·🇷🇺 Russia

Lanciato Jan 17, 1974 da Plesetsk Cosmodrome

Loading…

Prossimi Passaggi (prossime 24 ore)

TLE

AggiornatoSource: Space-Track

Epoca: Sep 14, 2026, 09:02 UTC

1 07094U 74001A   26257.37672442  .00000049  00000-0  35181-4 0  9994
2 07094  82.9539 115.6506 0035237 251.8369 281.5185 13.75973982642844

Traccia COSMOS 628 in tempo reale con AllMySat

Download on the App Store